Probability
6 6 6 6 6 3 3 3 0 0 0 0 0 0 0 0 0 0 0 0 0 0 0 0 0 0 0 0 0 0 0 0 0 0 0 0 0 0 0 0 0 0 0
10 6 6 6 6 6 3 3 3 3 0 0 0 0 0 0 0 0 0 0 0 0 0 0 0 0 0 0 0 0 0 0 0 0 0 0 0 0 0 0 0 0 0
16 13 6 6 6 6 6 3 3 3 3 3 0 0 0 0 0 0 0 0 0 0 0 0 0 0 0 0 0 0 0 0 0 0 0 0 0 0 0 0 0 0 0
6 13 10 10 6 6 6 3 3 3 3 3 3 3 0 0 0 0 0 0 0 0 0 0 0 0 0 0 0 0 0 0 0 0 0 0 0 0 0 0 0 0 0
3 10 13 10 10 10 10 10 3 3 3 3 3 3 3 0 0 0 0 0 0 0 0 0 0 0 0 0 0 0 0 0 0 0 0 0 0 0 0 0 0 0 0
6 6 10 13 10 10 13 10 10 6 3 3 3 0 0 0 0 0 0 0 0 0 0 0 0 0 0 0 0 0 0 0 0 0 0 0 0 0 0 0 0 0 0
6 13 13 10 10 13 10 10 6 6 3 3 3 3 3 0 0 0 0 0 0 0 0 0 0 0 0 0 0 0 0 0 0 0 0 0 0 0 0 0 0 0 0
6 6 13 10 13 13 13 10 6 6 3 3 3 3 3 0 0 0 0 0 0 0 0 0 0 0 0 0 0 0 0 0 0 0 0 0 0 0 0 0 0 0 0
3 6 10 10 10 10 10 6 6 6 3 3 3 3 3 3 0 0 0 0 0 0 0 0 0 0 0 0 0 0 0 0 0 0 0 0 0 0 0 0 0 0 0
6 6 10 10 10 10 6 6 3 6 3 3 0 0 0 0 0 0 0 0 0 0 0 0 0 0 0 0 0 0 0 0 0 0 0 0 0 0 0 0 0 0 0
6 6 10 10 6 6 6 3 3 0 0 0 0 0 0 0 0 0 0 0 0 0 0 0 0 0 0 0 0 0 0 0 0 0 0 0 0 0 0 0 0 0 0
6 10 6 6 6 6 6 3 0 0 0 0 0 0 0 0 0 0 0 0 0 0 0 0 0 0 0 0 0 0 0 0 0 0 0 0 0 0 0 0 0 0 0
6 6 3 3 3 6 6 0 0 0 0 0 0 0 0 0 0 0 0 0 0 0 0 0 0 0 0 0 0 0 0 0 0 0 0 0 0 0 0 0 0 0 0
0 0 3 3 3 3 0 0 0 0 0 0 0 0 0 0 0 0 0 0 0 0 0 0 0 0 0 0 0 0 0 0 0 0 0 0 0 0 0 0 0 0 0
0 0 0 0 0 0 0 0 0 0 0 0 0 0 0 0 0 0 0 0 0 0 0 0 0 0 0 0 0 0 0 0 0 0 0 0 0 0 0 0 0 0 0
0 0 0 0 0 0 0 0 0 0 0 0 0 0 0 0 0 0 0 0 0 0 0 0 0 0 0 0 0 0 0 0 0 0 0 0 0 0 0 0 0 0 0
0 0 0 0 0 0 0 0 0 0 0 0 0 0 0 0 0 0 0 0 0 0 0 0 0 0 0 0 0 0 0 0 0 0 0 0 0 0 0 0 0 0 0
0 0 0 0 0 0 0 0 0 0 0 0 0 0 0 0 0 0 0 0 0 0 0 0 0 0 0 0 0 0 0 0 0 0 0 0 0 0 0 0 0 0 0
0 0 0 0 0 0 0 0 0 0 0 0 0 0 0 0 0 0 0 0 0 0 0 0 0 0 0 0 0 0 0 0 0 0 0 0 0 0 0 0 0 0 0
0 0 0 0 0 0 0 0 0 0 0 0 0 0 0 0 0 0 0 0 0 0 0 0 0 0 0 0 0 0 0 0 0 0 0 0 0 0 0 0 0 0 0
0 0 0 0 0 0 0 0 0 0 0 0 0 0 0 0 0 0 0 0 0 0 0 0 0 0 0 0 0 0 0 0 0 0 0 0 0 0 0 0 0 0 0
0 0 0 0 0 0 0 0 0 0 0 0 0 0 0 0 0 0 0 0 0 0 0 0 0 0 0 0 0 0 0 0 0 0 0 0 0 0 0 0 0 0 0
0 0 0 0 0 0 0 0 0 0 0 0 0 0 0 0 0 0 0 0 0 0 0 0 0 0 0 0 0 0 0 0 0 0 0 0 0 0 0 0 0 0 0
0 0 0 0 0 0 0 0 0 0 0 0 0 0 0 0 0 0 0 0 0 0 0 0 0 0 0 0 0 0 0 0 0 0 0 0 0 0 0 0 0 0 0
0 0 0 0 0 0 0 0 0 0 0 0 0 0 0 0 0 0 0 0 0 0 0 0 0 0 0 0 0 0 0 0 0 0 0 0 0 0 0 0 0 0 0
0 0 0 0 0 0 0 0 0 0 0 0 0 0 0 0 0 0 0 0 0 0 0 0 0 0 0 0 0 0 0 0 0 0 0 0 0 0 0 0 0 0 0
Height
5837 5837 5838 5840 5841 5844 5846 5847 5849 5851 5853 5856 5858 5860 5862 5864 5865 5867 5868 5869 5871 5872 5872 5873 5874 5875 5875 5875 5876 5876 5876 5876 5876 5875 5875 5874 5873 5872 5871 5870 5869 5868 5867
5836 5836 5837 5838 5839 5841 5843 5844 5846 5848 5850 5852 5854 5856 5858 5860 5861 5863 5864 5865 5866 5867 5868 5869 5869 5870 5870 5871 5871 5871 5871 5871 5871 5870 5869 5868 5868 5867 5866 5865 5863 5862 5861
5835 5835 5836 5837 5838 5839 5840 5842 5843 5845 5846 5848 5850 5852 5853 5855 5857 5858 5859 5860 5861 5862 5863 5863 5864 5865 5865 5865 5865 5865 5865 5865 5865 5864 5863 5862 5861 5860 5859 5858 5857 5855 5854
5833 5834 5834 5835 5836 5836 5838 5839 5840 5841 5842 5844 5845 5847 5849 5850 5852 5853 5854 5855 5855 5856 5857 5858 5858 5859 5859 5859 5859 5859 5859 5858 5858 5857 5856 5855 5854 5853 5852 5851 5849 5847 5846
5831 5831 5832 5832 5833 5833 5834 5835 5836 5837 5838 5839 5841 5842 5844 5845 5846 5847 5848 5849 5849 5850 5851 5852 5852 5853 5852 5852 5852 5852 5852 5851 5850 5850 5849 5848 5846 5845 5844 5842 5841 5839 5837
5828 5829 5829 5829 5829 5830 5831 5831 5832 5833 5834 5835 5836 5837 5839 5840 5841 5842 5843 5844 5844 5845 5845 5846 5846 5846 5846 5845 5845 5845 5844 5843 5843 5842 5841 5839 5838 5836 5834 5833 5831 5830 5828
5825 5825 5825 5826 5826 5827 5827 5827 5828 5829 5829 5830 5831 5832 5834 5835 5836 5836 5837 5838 5838 5839 5839 5839 5839 5839 5839 5838 5838 5837 5836 5835 5834 5833 5832 5830 5828 5826 5825 5823 5821 5819 5817
5821 5821 5821 5821 5822 5822 5822 5823 5823 5824 5825 5825 5826 5827 5828 5829 5830 5830 5831 5831 5832 5832 5832 5832 5832 5831 5831 5830 5830 5828 5827 5826 5825 5823 5822 5820 5818 5816 5814 5812 5809 5807 5805
5816 5816 5816 5816 5817 5817 5818 5819 5819 5820 5820 5820 5821 5821 5822 5823 5823 5824 5824 5825 5825 5824 5824 5824 5824 5823 5823 5822 5821 5819 5818 5816 5814 5812 5811 5808 5806 5804 5802 5799 5797 5794 5792
5810 5810 5811 5811 5812 5813 5813 5814 5814 5814 5814 5815 5815 5815 5815 5816 5817 5817 5817 5817 5817 5817 5816 5816 5815 5814 5813 5812 5811 5809 5807 5805 5803 5801 5799 5797 5794 5791 5789 5786 5783 5780 5778
5804 5804 5805 5806 5807 5808 5808 5809 5809 5809 5809 5809 5809 5808 5809 5809 5810 5810 5810 5810 5809 5809 5808 5807 5806 5805 5804 5802 5801 5799 5796 5794 5792 5789 5787 5784 5781 5778 5775 5772 5769 5766 5763
5797 5798 5798 5799 5800 5801 5802 5803 5803 5803 5803 5803 5802 5802 5802 5802 5802 5802 5802 5802 5801 5800 5799 5798 5797 5795 5793 5792 5789 5787 5785 5783 5780 5777 5774 5771 5768 5765 5762 5758 5755 5751 5748
5790 5791 5793 5794 5795 5795 5796 5796 5797 5796 5796 5796 5795 5795 5795 5795 5795 5795 5794 5794 5793 5791 5789 5788 5786 5784 5783 5781 5778 5776 5773 5771 5768 5765 5761 5758 5755 5751 5747 5743 5740 5736 5732
5784 5785 5787 5788 5788 5789 5789 5789 5789 5789 5789 5788 5788 5788 5788 5788 5787 5787 5786 5785 5784 5782 5780 5778 5776 5774 5772 5769 5767 5764 5761 5758 5755 5751 5747 5744 5740 5736 5732 5728 5724 5719 5714
5778 5779 5780 5781 5782 5782 5782 5782 5782 5782 5782 5782 5781 5781 5780 5780 5779 5779 5777 5776 5774 5772 5770 5769 5766 5764 5761 5758 5755 5752 5749 5745 5741 5737 5733 5729 5725 5720 5716 5711 5707 5702 5697
5772 5773 5774 5775 5775 5775 5775 5775 5775 5775 5775 5775 5774 5773 5772 5772 5770 5769 5768 5766 5764 5763 5761 5758 5755 5752 5749 5746 5742 5739 5735 5731 5726 5722 5718 5713 5708 5704 5699 5694 5689 5684 5680
5766 5767 5767 5768 5769 5769 5769 5769 5768 5768 5767 5767 5766 5765 5764 5763 5762 5760 5758 5756 5754 5752 5750 5746 5743 5740 5736 5733 5729 5725 5720 5716 5711 5707 5702 5697 5692 5687 5682 5677 5672 5667 5662
5760 5761 5761 5762 5762 5762 5762 5762 5762 5761 5760 5759 5759 5757 5756 5755 5753 5751 5749 5746 5744 5741 5738 5735 5731 5728 5724 5719 5715 5710 5706 5701 5696 5691 5686 5681 5676 5670 5665 5660 5655 5650 5646
5754 5755 5755 5756 5756 5756 5755 5755 5755 5754 5753 5752 5751 5749 5748 5746 5744 5741 5739 5736 5733 5730 5726 5723 5719 5715 5710 5706 5701 5696 5691 5686 5681 5675 5670 5665 5660 5655 5650 5645 5640 5636 5631
5748 5749 5749 5750 5749 5749 5749 5748 5748 5747 5745 5744 5742 5741 5739 5736 5734 5731 5729 5725 5722 5718 5714 5710 5706 5702 5697 5692 5687 5682 5677 5672 5666 5661 5656 5651 5647 5642 5637 5632 5627 5623 5619
5743 5743 5744 5744 5743 5743 5742 5741 5740 5739 5737 5736 5734 5731 5729 5726 5724 5721 5718 5714 5711 5707 5702 5698 5693 5688 5683 5679 5674 5669 5664 5659 5654 5649 5644 5639 5634 5629 5625 5620 5615 5611 5607
5738 5738 5738 5738 5737 5736 5735 5734 5733 5731 5729 5727 5725 5722 5720 5717 5714 5710 5707 5703 5699 5694 5690 5685 5681 5676 5671 5666 5662 5657 5652 5647 5642 5637 5632 5628 5623 5618 5613 5609 5604 5600 5595
5733 5733 5733 5732 5731 5730 5729 5727 5725 5723 5721 5719 5716 5713 5710 5707 5704 5700 5696 5692 5687 5683 5679 5674 5669 5664 5660 5655 5651 5646 5641 5637 5632 5627 5623 5618 5613 5608 5603 5598 5594 5590 5586
5728 5727 5727 5726 5725 5723 5722 5720 5717 5715 5713 5710 5707 5704 5700 5697 5693 5689 5685 5681 5677 5672 5668 5663 5659 5654 5650 5645 5641 5636 5632 5627 5623 5618 5613 5608 5604 5599 5594 5589 5585 5581 5577
5723 5722 5721 5719 5718 5716 5714 5712 5710 5707 5704 5701 5698 5694 5690 5687 5683 5679 5675 5671 5666 5662 5658 5653 5649 5645 5640 5636 5632 5627 5623 5618 5614 5609 5605 5600 5595 5591 5586 5581 5577 5573 5569
5717 5716 5714 5712 5711 5708 5706 5704 5701 5698 5695 5692 5688 5685 5681 5677 5674 5670 5666 5661 5657 5653 5649 5645 5641 5636 5632 5628 5623 5619 5615 5610 5606 5601 5597 5592 5588 5583 5579 5574 5570 5566 5562
Wind_Speed
4 5 7 10 12 13 14 15 16 18 19 19 20 20 20 20 19 19 18 18 18 18 18 19 18 18 19 19 19 19 19 19 19 20 20 20 20 20 21 22 22 23 24
5 6 7 9 11 12 13 15 16 17 19 20 21 21 22 22 21 20 20 20 20 20 21 21 21 22 22 22 22 22 22 22 22 22 22 23 23 24 24 25 25 26 27
6 7 8 9 11 13 14 15 16 16 18 20 21 22 23 23 22 21 21 21 22 22 22 22 23 23 23 24 24 24 24 24 24 24 25 25 26 27 27 28 28 29 30
8 8 9 10 11 12 13 14 16 17 18 19 21 22 22 22 22 22 22 23 23 23 23 23 23 23 24 24 25 26 26 26 27 27 27 28 29 30 30 31 31 32 32
10 10 11 11 12 13 14 15 16 17 18 19 20 21 22 22 23 23 22 22 23 24 24 23 24 24 25 25 26 27 28 28 29 29 29 30 31 32 33 34 34 34 35
12 12 12 12 13 14 15 16 16 17 18 20 21 22 22 22 24 24 24 24 23 24 25 25 25 26 26 27 27 28 29 30 31 31 32 33 34 35 36 36 37 37 37
14 14 15 15 15 16 17 17 17 18 19 20 21 21 21 22 23 25 25 25 25 25 26 27 28 28 28 28 29 30 31 32 33 34 35 36 37 38 38 39 40 40 40
16 16 16 16 17 17 17 17 17 18 19 20 21 22 23 23 24 24 25 26 27 27 28 28 29 30 30 31 32 33 34 35 36 37 38 39 40 41 42 42 43 43 44
16 17 18 18 18 18 18 19 18 19 20 20 23 24 25 24 25 25 25 26 27 29 29 30 32 32 33 35 36 36 37 39 40 40 41 42 43 44 44 44 45 46 47
19 18 18 18 18 18 19 19 19 20 21 22 23 24 24 25 25 26 27 29 30 30 30 31 33 33 34 35 37 38 39 40 42 43 44 44 45 45 46 47 47 48 49
21 20 20 20 19 20 20 20 20 21 22 22 24 24 25 26 27 28 29 30 30 31 32 32 33 35 36 38 40 40 41 42 43 44 45 46 47 47 48 49 49 50 51
21 21 20 21 22 22 22 22 21 22 23 24 24 25 25 25 26 27 28 29 29 30 32 34 36 37 38 40 41 42 42 43 45 46 46 47 48 49 50 51 52 52 53
22 21 21 22 22 23 24 24 23 23 25 25 25 25 26 26 27 27 28 29 30 32 34 35 36 37 39 41 42 43 44 45 46 47 48 49 50 51 53 54 55 57 58
22 21 22 23 23 24 23 22 23 24 24 24 25 26 26 27 28 30 30 30 32 33 34 36 37 39 41 42 44 44 45 46 47 48 49 50 52 53 55 56 57 58 59
22 22 23 23 24 24 23 22 21 22 22 23 25 26 26 28 29 31 32 33 33 34 36 38 40 41 42 43 44 46 47 48 50 50 52 53 55 56 57 58 58 58 58
21 22 22 23 23 23 23 24 24 24 24 25 26 26 27 29 30 31 33 34 36 37 38 39 40 42 43 44 46 48 49 50 51 53 54 55 56 57 57 58 58 58 58
21 22 22 23 23 23 22 22 23 24 24 25 27 28 29 31 32 33 34 35 36 37 39 40 42 43 45 46 48 49 50 51 52 54 55 56 56 57 57 57 57 56 56
20 20 21 22 22 22 22 23 23 24 25 26 27 29 30 31 32 33 34 35 36 38 40 42 43 45 46 48 49 50 51 52 53 53 54 54 54 54 54 53 53 52 51
19 20 21 21 22 23 23 24 24 25 26 27 28 29 30 31 32 34 35 37 38 40 42 43 44 46 47 48 49 49 50 50 51 51 50 50 49 49 48 48 48 47 46
18 19 20 21 22 22 23 24 24 25 26 27 28 29 31 32 33 35 37 38 39 41 42 44 45 46 47 47 47 47 47 47 47 46 45 45 45 44 44 44 43 43 42
18 18 19 20 21 22 23 24 25 26 27 28 29 31 32 33 35 36 37 39 40 42 43 44 44 44 44 45 45 44 44 43 43 43 42 42 42 42 41 41 41 40 39
17 18 19 20 21 22 24 25 26 27 28 29 30 31 33 35 36 38 39 40 41 42 42 42 42 42 42 42 41 41 40 40 40 40 39 39 39 39 38 38 38 37 36
17 18 19 21 22 23 24 25 27 28 29 31 32 34 35 36 38 39 40 40 40 40 40 40 40 40 39 39 38 38 37 37 37 36 36 37 37 36 35 35 34 33 33
18 19 20 21 23 24 25 27 28 30 31 32 34 35 36 36 37 38 38 38 38 38 38 38 37 36 36 36 36 35 35 34 34 34 34 34 34 34 33 32 32 31 31
19 21 22 24 25 26 27 29 30 31 32 34 35 35 36 36 36 36 37 37 36 36 35 35 34 34 34 34 33 33 33 32 32 32 33 33 32 32 31 31 30 29 29
21 23 24 25 27 28 29 30 31 32 33 34 34 34 34 35 35 35 35 34 34 34 33 33 33 33 33 32 31 31 31 31 31 31 31 31 31 30 29 29 28 27 27
Wind_Direction
266 250 236 223 218 219 223 226 230 231 231 233 233 233 236 239 241 243 244 246 248 250 251 253 255 257 259 262 265 267 270 273 275 278 280 282 283 283 284 284 284 284 284
271 260 245 232 224 224 229 232 234 234 235 237 236 237 239 241 243 246 246 247 251 253 254 256 258 259 261 263 265 268 270 273 275 276 278 280 281 282 283 284 284 284 284
269 266 259 249 242 235 238 239 238 239 240 240 240 240 242 243 245 249 251 251 254 257 258 258 260 262 264 265 266 268 270 272 273 275 276 277 279 280 282 283 284 284 285
270 268 263 257 252 248 247 247 246 245 243 243 244 243 245 246 249 251 254 255 257 259 260 261 264 266 268 268 268 270 271 272 273 275 276 277 278 280 281 282 283 283 284
267 264 265 263 255 253 251 251 250 248 247 246 245 245 247 250 251 253 257 259 259 260 262 264 266 268 269 271 271 272 273 274 275 276 276 278 280 282 282 282 282 282 282
267 265 262 261 257 256 255 255 253 252 252 252 250 249 253 256 254 257 260 262 263 263 264 265 267 268 270 272 273 274 275 276 276 276 278 280 281 282 283 283 282 282 282
264 265 265 263 260 260 260 257 257 256 257 258 255 255 257 259 261 260 260 260 262 264 265 268 269 270 270 271 272 273 275 276 277 277 278 280 281 282 283 283 283 282 281
261 262 265 262 260 260 259 260 260 261 262 260 257 257 259 263 263 263 263 263 264 265 267 270 271 270 270 272 274 275 276 277 278 278 278 279 281 283 284 283 283 283 282
261 263 262 264 261 259 259 260 260 261 260 260 259 258 259 261 263 264 265 266 266 268 269 270 270 271 273 275 276 277 277 278 279 279 280 280 281 282 283 283 283 283 283
263 262 264 265 263 261 261 262 262 262 263 261 261 260 259 261 264 265 266 267 269 270 272 272 272 273 274 275 277 278 280 281 281 280 281 281 282 282 282 282 282 282 283
263 261 260 261 261 262 264 262 265 265 266 264 263 263 263 264 265 268 268 269 271 272 274 275 275 276 277 278 280 280 281 282 283 283 283 283 283 283 284 284 284 284 284
261 259 259 258 258 259 261 262 264 266 268 267 267 265 265 265 267 270 270 271 272 274 276 276 276 277 279 281 281 282 283 284 285 285 284 284 284 284 284 285 285 285 284
256 256 257 258 262 264 264 263 266 268 270 272 270 269 268 269 271 272 274 274 276 277 279 279 278 278 279 281 282 283 284 285 285 284 284 284 284 285 285 286 286 286 286
254 254 256 259 263 265 265 268 269 269 270 272 272 269 271 272 273 274 276 275 277 277 277 279 279 280 281 281 283 284 285 285 286 286 286 286 286 287 287 287 288 288 288
257 258 258 258 262 263 264 267 271 271 272 272 272 273 273 274 274 276 278 278 279 278 279 279 281 282 284 284 284 285 286 287 288 288 288 288 289 289 289 289 290 289 289
256 258 260 260 263 266 268 271 271 271 271 273 274 275 275 276 277 278 280 280 282 282 282 283 284 285 286 286 287 288 289 289 289 289 290 290 290 290 290 290 290 290 290
257 259 260 260 261 265 267 268 271 272 274 276 277 278 278 277 278 280 281 283 284 284 284 285 286 287 289 290 290 291 291 291 291 291 291 291 291 291 291 291 292 292 292
258 259 260 262 262 266 268 269 272 275 276 278 279 280 281 282 282 282 284 285 286 287 288 289 290 291 292 293 293 293 294 293 293 293 293 293 293 294 294 294 294 294 293
259 261 264 266 268 269 272 272 273 276 278 279 281 282 283 284 286 287 288 289 290 291 292 292 293 294 295 296 296 297 297 297 296 296 296 297 297 297 297 297 296 295 294
261 264 265 265 267 270 272 275 276 279 282 283 284 285 286 287 289 291 292 293 294 294 295 296 297 297 298 299 300 300 300 300 300 300 300 300 300 300 300 299 298 297 296
265 266 267 269 272 275 277 279 281 283 285 287 288 289 291 292 294 295 294 295 297 297 298 299 300 301 302 302 302 303 303 303 303 303 303 302 302 301 301 300 300 299 298
267 269 272 276 280 282 284 285 286 287 289 291 292 294 295 296 296 297 297 298 299 300 301 302 304 304 304 304 305 305 305 305 305 305 305 305 305 305 304 303 302 302 301
276 277 279 281 284 285 286 288 289 290 292 293 294 295 296 297 299 300 301 302 303 304 305 306 306 306 306 306 305 306 306 307 307 307 308 308 308 308 307 307 306 305 304
279 281 284 286 287 289 291 292 293 294 295 296 296 297 299 301 302 303 304 306 306 307 308 308 308 308 308 307 307 307 307 308 309 310 311 312 312 311 311 310 308 307 306
283 286 288 289 291 292 293 294 295 297 298 299 300 301 303 304 305 306 307 309 309 310 310 310 310 310 310 310 310 310 310 311 311 312 313 314 314 314 313 313 312 310 309
287 289 290 291 293 294 296 297 298 299 301 302 303 304 306 307 307 309 310 310 310 311 311 311 311 311 311 311 312 312 313 313 314 314 314 315 316 316 316 315 314 314 313